[[{"header":{"parameterUnit":"m.s-1","parameterCategory":1,"la1":30.2991,"la2":30.254,"lo1":-89.0895,"lo2":-89.0444,"dy":0.0017,"dx":0.0017,"nx":28,"ny":28,"refTime":"2023-10-02T03:00:00:Z","depth":0,"parameterNumber":2,"parameterNumberName":"U-component_of_WINDS"},"data":[0,0,0,0,0,0,0,0,0,0,0,0,0,0,0,0,0,0,0,0,0,0,0,0,0,0,0,0,0,0,0,0,0,0,0,0,0,0,0,0,0,0,0,0,0,0,0,0,0,0,0,0,0,0,0,0,0,0,-2.916,-2.9161,0,-2.9174,-2.9174,-2.9174,-2.9026,-2.9022,-2.9018,-2.9014,-2.9033,-2.9037,-2.9041,0,0,0,0,0,0,0,0,0,0,0,0,0,-2.9012,-2.9016,-2.916,-2.9161,-2.9161,-2.9174,-2.9174,-2.9174,-2.9027,-2.9022,-2.9017,-2.9012,-2.9031,-2.9036,-2.9041,0,0,0,0,0,0,0,0,0,0,0,0,0,-2.9057,-2.9017,-2.916,-2.9089,-2.9082,-2.9174,-2.9174,-2.9174,-2.9028,-2.9022,-2.9016,-2.901,-2.903,-2.9036,-2.9042,-2.9204,0,0,-2.9062,-2.9065,0,0,0,0,0,0,0,0,-2.9054,-2.9062,-2.9099,-2.9094,-2.9087,-2.9092,-2.9128,-2.9185,-2.9029,-2.9049,-2.9014,-2.9007,-2.9058,-2.9061,-2.9077,-2.9205,-2.9206,-2.9062,-2.9066,-2.9069,-2.9071,0,0,0,0,0,0,0,-2.9051,-2.9061,-2.9166,-2.91,-2.9092,-2.9058,-2.9057,-2.9138,-2.9088,-2.9047,-2.9036,-2.9039,-2.9053,-2.9072,-2.9077,-2.9206,-2.9062,-2.9068,-2.9072,-2.9074,-2.9471,-2.9477,0,0,0,0,0,0,-2.9057,-2.9059,-2.9165,-2.9166,-2.9055,-2.9065,-2.9065,-2.9097,-2.9086,-2.9079,-2.9044,-2.9032,-2.9064,-2.9069,-2.9077,-2.9268,-2.9069,-2.9075,-2.9079,-2.9464,-2.9472,-2.9479,0,0,0,0,0,0,-2.9055,-2.9068,-2.9165,-2.911,-2.9119,-2.9074,-2.9111,-2.91,-2.9118,-2.9084,-2.9075,-2.9072,-2.9059,-2.9068,-2.9174,-2.9266,-2.9078,-2.9084,-2.9456,-2.9467,-2.9476,-2.9651,0,0,0,0,0,0,-2.9051,-2.9068,-2.9128,-2.9112,-2.9123,-2.9261,-2.9117,-2.9105,-2.9129,-2.9113,-2.9108,-2.9101,-2.9055,-2.9165,-2.9181,-2.9272,-2.9089,-2.9448,-2.9461,-2.9473,-2.9636,-2.9665,-2.969,0,0,0,0,0,-2.9046,-2.9177,-2.9132,-2.9145,-2.9196,-2.9266,-2.9272,-2.9215,-2.9137,-2.9198,-2.9177,-2.9102,-2.9254,-2.9177,-2.9193,-2.9288,-2.9442,-2.9457,-2.9472,-2.9624,-2.966,-2.9689,0,0,0,0,0,0,-2.9206,-2.9173,-2.9123,-2.9252,-2.9263,-2.9241,-2.9315,-2.9254,-2.9288,-2.9272,-2.92,-2.92,-2.9319,-2.9314,-2.9229,-2.9446,-2.9334,-2.9353,-2.9445,-2.9478,-2.9505,-2.9504,-2.9094,0,0,0,0,0,-2.9256,-2.9313,-2.9282,-2.94,-2.9407,-2.9361,-2.9389,-2.9344,-2.9353,-2.9357,-2.9343,-2.9357,-2.9407,-2.9442,-2.9487,-2.9635,-2.9633,-2.9708,-2.9735,-2.9757,-2.9775,-2.9855,-2.9889,-2.9529,-2.9529,-2.9528,0,0,-2.936,-2.9349,-2.939,-2.9431,-2.9434,-2.9498,-2.9366,-2.9438,-2.9485,-2.9368,-2.9468,-2.9459,-2.9469,-2.9598,-2.9653,-2.9597,-2.9874,-2.9776,-2.9794,-2.98,-2.9874,-2.9908,-2.9939,-2.9539,-2.9537,-2.9535,0,0,-2.9582,-2.9579,-2.9677,-2.9683,-2.9689,-2.9658,-2.9682,-2.967,-2.9659,-2.9757,-2.9672,-2.9728,-2.9816,-2.9827,-2.9845,-3.0075,-3.0008,-3.0091,-3.0232,-3.0311,-3.034,-3.0365,-3.0449,-3.0479,-3.0109,-3.0109,-3.0109,0,-2.9711,-2.9801,-2.9736,-2.9814,-2.9836,-2.9732,-2.9833,-2.9842,-2.9864,-2.9882,-2.9818,-2.9928,-2.9927,-3.0058,-3.0115,-3.0132,-3.0159,-3.0092,-3.034,-3.0365,-3.0387,-3.0467,-3.0498,-3.0119,-3.0118,-3.0117,-3.0116,0,-2.9961,-3.0025,-3.0104,-3.0126,-3.0157,-3.0246,-3.0196,-3.0235,-3.0188,-3.0165,-3.0268,-3.0264,-3.0307,-3.0335,-3.0289,-3.0461,-3.0425,-3.0352,-3.0239,-3.0433,-3.0506,-3.0536,-3.0134,-3.013,-3.0127,-3.0125,0,0,-3.0283,-3.0269,-3.0299,-3.0309,-3.0309,-3.0359,-3.0445,-3.0486,-3.0522,-3.0541,-3.0612,-3.0691,-3.0624,-3.0644,-3.0599,-3.0669,-3.0854,-3.0587,-3.0586,-3.0638,-3.1045,-3.1101,-3.1137,-3.0809,-3.0815,-3.0819,-3.1045,0,-3.0501,-3.0644,-3.0589,-3.0738,-3.0798,-3.0702,-3.0777,-3.0787,-3.0768,-3.0818,-3.0797,-3.0854,-3.076,-3.0772,-3.0836,-3.0818,-3.0935,-3.08,-3.0878,-3.0881,-3.088,-3.1175,-3.1234,-3.1447,-3.1073,-3.1078,-3.1081,0,-3.0774,-3.0803,-3.0958,-3.095,-3.0973,-3.1041,-3.1076,-3.1124,-3.1134,-3.1115,-3.1139,-3.108,-3.1166,-3.1053,-3.1172,-3.1082,-3.1111,-3.1107,-3.1114,-3.112,-3.0994,-3.1191,-3.1514,-3.1547,-3.1126,-3.1122,-3.1119,0,-3.0996,-3.1074,-3.1177,-3.1189,-3.1181,-3.1232,-3.1232,-3.1235,-3.1265,-3.1296,-3.1314,-3.1356,-3.1379,-3.1413,-3.1368,-3.1289,-3.1495,-3.1377,-3.1484,-3.1486,-3.1533,-3.1531,-3.1866,-3.1549,-3.1549,-3.1548,-3.1548,0,-3.1245,-3.1345,-3.1277,-3.1341,-3.1451,-3.1387,-3.1498,-3.1487,-3.1492,-3.1554,-3.1473,-3.1534,-3.1469,-3.1525,-3.149,-3.1596,-3.1606,-3.1596,-3.1585,-3.1604,-3.1605,-3.1622,-3.1607,-3.1557,-3.1555,-3.1553,-3.1552,0,-3.1512,-3.147,-3.1577,-3.1562,-3.156,-3.1642,-3.1629,-3.1689,-3.1665,-3.1744,-3.1759,-3.1722,-3.1783,-3.1741,-3.1802,-3.1779,-3.1918,-3.1887,-3.1915,-3.1907,-3.2017,-3.2008,-3.2376,-3.2422,-3.2075,-3.2078,-3.2081,0,-3.1674,-3.1748,-3.1741,-3.1776,-3.1781,-3.1838,-3.1867,-3.1809,-3.1843,-3.1862,-3.1921,-3.1974,-3.2014,-3.2117,-3.2096,-3.2144,-3.2114,-3.224,-3.212,-3.2137,-3.2118,-3.2115,-3.2123,-3.2264,-3.2268,-3.2272,-3.2274,0,-3.1968,-3.1944,-3.1989,-3.2028,-3.2065,-3.2093,-3.2114,-3.2148,-3.2089,-3.2133,-3.2193,-3.2225,-3.2287,-3.2343,-3.2383,-3.2384,-3.2322,-3.2312,-3.234,-3.236,-3.2374,-3.237,-3.1982,-3.2304,-3.2301,-3.2299,-3.2297,-3.2296,-3.2188,-3.2251,-3.2256,-3.2309,-3.2319,-3.2342,-3.2398,-3.2381,-3.243,-3.2475,-3.2438,-3.2512,-3.2523,-3.2569,-3.258,-3.2638,-3.2587,-3.2626,-3.2637,-3.2648,-3.2664,-3.2363,-3.2645,-3.2644,-3.2643,-3.2642,-3.2642,0,-3.2479,-3.2478,-3.2528,-3.2561,-3.2604,-3.2538,-3.256,-3.2601,-3.2666,-3.2681,-3.2722,-3.2794,-3.2848,-3.2832,-3.2881,-3.2932,-3.2904,-3.2947,-3.2943,-3.2945,-3.2706,-3.2678,-3.2968,-3.2968,-3.2968,-3.2968,-3.2968,-3.2968,-3.2636,-3.2739,-3.2716,-3.2824,-3.2822,-3.2893,-3.2911,-3.2933,-3.2944,-3.3028,-3.3072,-3.3061,-3.3065,-3.3114,-3.3162,-3.3156,-3.3179,-3.3232,-3.3217,-3.2994,-3.2962,-3.2931,-3.2904,-3.3237,-3.3238,-3.3451,-3.3453,-3.3455]},{"header":{"parameterUnit":"m.s-1","parameterCategory":1,"la1":30.2991,"la2":30.254,"lo1":-89.0895,"lo2":-89.0444,"dy":0.0017,"dx":0.0017,"nx":28,"ny":28,"refTime":"2023-10-02T03:00:00:Z","depth":0,"parameterNumber":3,"parameterNumberName":"V-component_of_WINDS"},"data":[0,0,0,0,0,0,0,0,0,0,0,0,0,0,0,0,0,0,0,0,0,0,0,0,0,0,0,0,0,0,0,0,0,0,0,0,0,0,0,0,0,0,0,0,0,0,0,0,0,0,0,0,0,0,0,0,0,0,1.0973,1.0973,0,1.0961,1.0961,1.0961,1.0943,1.0942,1.0942,1.0942,1.0929,1.0929,1.0929,0,0,0,0,0,0,0,0,0,0,0,0,0,1.098,1.098,1.0973,1.0973,1.0973,1.0961,1.0961,1.0961,1.0943,1.0942,1.0942,1.0942,1.0929,1.0929,1.0929,0,0,0,0,0,0,0,0,0,0,0,0,0,1.0973,1.098,1.0973,1.0962,1.0961,1.0961,1.0961,1.0961,1.0943,1.0942,1.0942,1.0941,1.0929,1.0929,1.0929,1.0938,0,0,1.0928,1.0928,0,0,0,0,0,0,0,0,1.0974,1.0973,1.0964,1.0963,1.0962,1.0953,1.0959,1.0953,1.0943,1.095,1.0942,1.0941,1.0937,1.0936,1.0935,1.0937,1.0937,1.0928,1.0928,1.0928,1.0928,0,0,0,0,0,0,0,1.0974,1.0974,1.0968,1.0964,1.0963,1.0958,1.0957,1.0958,1.0946,1.0949,1.0948,1.0947,1.0936,1.0935,1.0935,1.0937,1.0928,1.0928,1.0928,1.0928,1.0946,1.0946,0,0,0,0,0,0,1.0976,1.0974,1.0969,1.0968,1.0967,1.0958,1.0957,1.0956,1.0946,1.0944,1.0947,1.0946,1.0936,1.0935,1.0934,1.0944,1.0928,1.0928,1.0928,1.0945,1.0946,1.0946,0,0,0,0,0,0,1.0977,1.0976,1.0969,1.0971,1.0969,1.0959,1.0958,1.0956,1.0955,1.0945,1.0943,1.0948,1.0935,1.0934,1.0937,1.0943,1.0928,1.0928,1.0945,1.0945,1.0946,1.0964,0,0,0,0,0,0,1.0977,1.0976,1.098,1.0971,1.0969,1.0972,1.0959,1.0956,1.0955,1.0953,1.0945,1.0943,1.0935,1.0937,1.0937,1.0943,1.0928,1.0944,1.0945,1.0946,1.0962,1.0965,1.0967,0,0,0,0,0,1.0977,1.0985,1.098,1.0979,1.0973,1.0973,1.0972,1.0962,1.0956,1.0959,1.0952,1.0943,1.0943,1.0938,1.0937,1.0943,1.0944,1.0945,1.0946,1.0961,1.0964,1.0967,0,0,0,0,0,0,1.0994,1.0983,1.0978,1.0983,1.0979,1.097,1.0973,1.0966,1.0963,1.0962,1.095,1.0948,1.0953,1.0949,1.0943,1.0952,1.0942,1.0943,1.0954,1.0957,1.0959,1.0959,1.0928,0,0,0,0,0,1.0998,1.0999,1.099,1.0995,1.0993,1.0984,1.0983,1.0976,1.0972,1.097,1.0963,1.0959,1.0958,1.0957,1.0956,1.0963,1.096,1.0966,1.0969,1.0971,1.0971,1.0974,1.0977,1.095,1.095,1.095,0,0,1.1007,1.1002,1.1002,1.0998,1.0994,1.0995,1.0982,1.0984,1.0984,1.097,1.0972,1.0968,1.0962,1.0967,1.0968,1.0963,1.0978,1.0972,1.0974,1.0973,1.0975,1.0978,1.098,1.0951,1.0951,1.0951,0,0,1.1023,1.1019,1.1023,1.102,1.1014,1.1008,1.1009,1.1001,1.0998,1.1,1.099,1.099,1.0989,1.0985,1.0983,1.0999,1.099,1.0999,1.101,1.1013,1.1015,1.1017,1.1022,1.1024,1.1,1.1,1.1,0,1.1034,1.1035,1.1026,1.1028,1.1026,1.1015,1.1018,1.1016,1.101,1.1009,1.1004,1.1002,1.0997,1.1001,1.1005,1.1004,1.1004,1.0999,1.1016,1.1017,1.1019,1.1023,1.1025,1.1001,1.1001,1.1001,1.1001,0,1.1049,1.105,1.1054,1.1049,1.1048,1.105,1.1042,1.1042,1.1036,1.103,1.1033,1.1027,1.1024,1.1025,1.1019,1.1028,1.1025,1.1018,1.1008,1.1023,1.1027,1.1028,1.1002,1.1002,1.1002,1.1002,0,0,1.1073,1.1064,1.1066,1.1063,1.1057,1.1057,1.106,1.1058,1.1058,1.1055,1.1056,1.1056,1.105,1.1047,1.1041,1.1044,1.1056,1.1036,1.1036,1.1039,1.1065,1.1069,1.1072,1.1051,1.1052,1.1052,1.1065,0,1.1087,1.1091,1.1083,1.1089,1.1089,1.1079,1.1081,1.1077,1.1073,1.1072,1.1067,1.1067,1.1059,1.1057,1.106,1.1054,1.1061,1.1053,1.1052,1.1052,1.1052,1.1074,1.1078,1.1091,1.1067,1.1067,1.1067,0,1.1103,1.1101,1.1107,1.11,1.11,1.1102,1.11,1.11,1.1096,1.1092,1.109,1.1083,1.1085,1.1077,1.1079,1.1074,1.1073,1.1071,1.1071,1.1069,1.1059,1.1071,1.1095,1.1096,1.107,1.107,1.107,0,1.1119,1.1118,1.1121,1.112,1.1113,1.1114,1.1112,1.1107,1.1106,1.1104,1.1104,1.1102,1.1101,1.1099,1.1092,1.1087,1.1095,1.1086,1.1092,1.1092,1.1092,1.1092,1.1115,1.1094,1.1094,1.1094,1.1094,0,1.1135,1.1138,1.1128,1.113,1.1134,1.1126,1.113,1.1126,1.1122,1.1123,1.1115,1.1115,1.1106,1.1106,1.11,1.1103,1.1103,1.11,1.1098,1.11,1.11,1.1098,1.1096,1.1095,1.1095,1.1095,1.1095,0,1.1152,1.1146,1.1149,1.1142,1.1141,1.1144,1.1138,1.114,1.1135,1.1136,1.1136,1.1129,1.1128,1.1121,1.1119,1.1115,1.112,1.1117,1.1121,1.112,1.1125,1.1124,1.1146,1.1148,1.1128,1.1128,1.1128,0,1.1162,1.1164,1.1158,1.1158,1.1156,1.1156,1.1156,1.1148,1.1148,1.1144,1.1146,1.1145,1.1143,1.1143,1.1137,1.1136,1.1132,1.114,1.1132,1.1134,1.1131,1.1131,1.113,1.1141,1.1142,1.1142,1.1142,0,1.1179,1.1176,1.1175,1.1173,1.1173,1.1171,1.1169,1.117,1.1162,1.1162,1.1161,1.116,1.1159,1.1158,1.1155,1.1152,1.1146,1.1145,1.1146,1.1147,1.1149,1.1147,1.1124,1.1144,1.1144,1.1144,1.1144,1.1143,1.1192,1.1193,1.119,1.1189,1.1187,1.1185,1.1186,1.1182,1.1182,1.118,1.1176,1.1176,1.1173,1.1169,1.1167,1.1167,1.1163,1.1165,1.1165,1.1165,1.1166,1.115,1.1167,1.1167,1.1167,1.1166,1.1166,0,1.1207,1.1205,1.1205,1.1202,1.1202,1.1197,1.1194,1.1194,1.1195,1.1192,1.1191,1.1191,1.119,1.1185,1.1184,1.1185,1.1182,1.1185,1.1184,1.1183,1.117,1.1168,1.1187,1.1187,1.1187,1.1187,1.1187,1.1187,1.1215,1.1218,1.1215,1.1216,1.1213,1.1214,1.1213,1.1211,1.1209,1.1209,1.1209,1.1206,1.1202,1.1201,1.12,1.1198,1.1198,1.1201,1.1199,1.1186,1.1184,1.1182,1.1181,1.1202,1.1202,1.1212,1.1212,1.1212]}]]